STARLINK-3877, 52355

Orbit data source: Space-Track

STARLINK-3877, 52355 is a payload satellite owned by SpaceX/Seattle (US) in LEO that was launched on Fri, 29 Apr 2022 UTC via an FALCON 9 launch vehicle from the Air Force Eastern Test Range (AFETR). Payload-class satellites include a variety of spacecraft equipped with specific instruments for various scientific and technological missions. These include communications satellites like Starlink; space stations such as the ISS; scientific satellites like the Hubble; Earth observation satellites from companies like Planet Labs, Umbra, and HawkEye 360; GPS; miniature CubeSats for education and research; and military/defense satellites.

Loading next visibility...
Identifier
52355, 2022-045AA
Orbit
LEO
Country
Flag of USUS
Related business
Manufacturer
SpaceX/Seattle
Mission
Operational Commercial Communications
Bus & Motor
STARLINK, Unknown motor
Mass
297 kg wet, ~275 kg dry
Launch date (UTC)
2022-04-29 (4 years ago)
Launch vehicle
FALCON 9
Launch site
Air Force Eastern Test Range (AFETR)
Object type
Payload
Rocket body
Debris
Shape & HBR
Box + 1 Pan, 10.1 m
Radar Cross Section
11.087 m², Large (>1 m²)

Expand to show TLE details & history
Last TLE update: 2 days ago

TLE from 2 days ago
0 STARLINK-3877
1 52355U 22045AA  26170.96359488 -.00000019  00000-0  16911-4 0  9994
2 52355  53.1609  99.8854 0001360 102.6419 257.4725 15.08834804231225
Epoch: 2026-06-19T23:07Z
TLE epoch observation values (Epoch: 2026-06-19T23:07:34.597Z)
Latitude
0.00001°
Longitude
-155.19378°
Altitude
540.855 km
Speed
7.593 km/s
True Right ascension
06h 39m 32s
True Declination
0° 00' 00"
Sunlit
Object was in daylight at epoch
Visualization orbit readout
Latitude
Unknown
Longitude
Unknown
Altitude
Unknown
Speed
Unknown
Apparent Right ascension
Unknown
Apparent Declination
Unknown
Sunlit
N/A
Visualization observer readout
Local Sidereal Time
21:51:53
Azimuth
Unknown
Elevation
Unknown
Doppler factor
Unknown
Orbital elements
Apogee altitude
540.954 km
Perigee altitude
539.072 km
Semi-major axis
6,918.15 km
Eccentricity
0.00014
Inclination
53.1609°
RAAN
99.8854°
Arg. of periapsis
102.6419°
True anomaly
257.45729°
Mean anomaly
257.4725°
Eccentric anomaly
257.46489°
Mean motion
3.77188 °/min
Orbital period
95.44 mins
BSTAR
0.000016911
Loading maneuver chart data...
Computing Atmospheric mass density...

Documentation

Showing up to 5 results
|